Location: Borotín
(49.5055°N, 14.6142°E)
Time: 11:48:59
(UTC+00:00)

Cosmos 371 Rocket - Pass Details

Date: 27 May 2022
Orbit: 684 x 697 km, 74.0° (Epoch: 26 June)

Event Time Altitude Azimuth Distance (km) Brightness Sun altitude
Exits shadow 00:06:54 31° 219° (SW) 1,211 4.0 -17.6°
Maximum altitude 00:09:11 69° 295° (WNW) 744 3.4 -17.5°
Drops below altitude 10° 00:14:02 10° 20° (NNE) 2,158 7.2 -17.3°
Sets 00:16:22 0° 23° (NNE) 3,077 8.4 -17.2°
